[Iaude] MPEC V163: 2023 VG5 [a=2.07,e=0.76,i=4.0,H=25.8]
    mpec at marsden.cfa.harvard.edu 
    mpec at marsden.cfa.harvard.edu
       
    Fri Nov 10 04:28:22 EST 2023
    
    
  
M.P.E.C. 2023-V163                            Issued 2023 November 10, 09:26 UT
     The Minor Planet Electronic Circulars contain information on unusual
         minor planets, routine data on comets and natural satellites,
         and occasional editorial announcements.  They are published
    on behalf of Division F of the International Astronomical Union by the
          Minor Planet Center, Smithsonian Astrophysical Observatory,
                          Cambridge, MA 02138, U.S.A.
			  
             Prepared using the Tamkin Foundation Computer Network
                              MPC at CFA.HARVARD.EDU
            URL https://www.minorplanetcenter.net/    ISSN 1523-6714
                                    2023 VG5                                    
Observations:
     K23V05G* C2023 11 08.42498403 34 14.870+08 40 13.99         21.88wXEV163F51
     K23V05G  C2023 11 08.43802203 34 13.232+08 39 41.73         21.86wXEV163F51
     K23V05G  C2023 11 08.45112003 34 11.614+08 39 09.08         21.93wXEV163F51
     K23V05G  C2023 11 08.53501703 34 01.110+08 35 35.31         21.72GVEV163F52
     K23V05G  C2023 11 08.53568003 34 01.030+08 35 33.72         21.96GVEV163F52
     K23V05G KC2023 11 09.22206703 32 52.620+08 03 42.12         21.49GVEV163I52
     K23V05G KC2023 11 09.22825503 32 51.756+08 03 23.22         21.63GVEV163I52
     K23V05G KC2023 11 09.23134403 32 51.338+08 03 14.47         21.79GVEV163I52
     K23V05G KC2023 11 10.37410903 30 10.753+06 57 02.02         21.64GVEV163I52
     K23V05G KC2023 11 10.37612303 30 10.314+06 56 53.92         21.96GVEV163I52
     K23V05G KC2023 11 10.37813703 30 09.965+06 56 45.17         21.10GVEV163I52
Observer details:
F51 Pan-STARRS 1, Haleakala.  Observers J. Bulger, T. Lowe, P. Minguez, A.
    Schultz, I. Smith.  Measurers K. Chambers, T. de Boer, J. Fairlamb, H.
    Gao, M. Huber, C.-C. Lin, E. Magnier, Y. Ramanjooloo, R. Wainscoat, R.
    Weryk.  1.8-m Ritchey-Chretien + CCD.
F52 Pan-STARRS 2, Haleakala.  Observers J. Bulger, T. Lowe, P. Minguez, A.
    Schultz, I. Smith.  Measurers K. Chambers, T. de Boer, J. Fairlamb, H.
    Gao, M. Huber, C.-C. Lin, E. Magnier, Y. Ramanjooloo, R. Wainscoat, R.
    Weryk.  1.8-m Ritchey-Chretien + CCD.
I52 Steward Observatory, Mt. Lemmon Station.  Observer H. Groeller.  Measurers
    E. C. Beshore, D. Fay, J. B. Fazekas, D. C. Fuls, A. R. Gibbs, A. D.
    Grauer, H. Groeller, J. K. Hogan, R. A. Kowalski, S. M. Larson, G. J.
    Leonard, D. Rankin, R. L. Seaman, F. C. Shelly, K. W. Wierzchos.  1.0-m
    prime focus + CCD.
Orbital elements:
2023 VG5                                                 Earth MOID = 0.0104 AU
Epoch 2023 Sept. 13.0 TT = JDT 2460200.5                MPC                     
M 323.35218              (2000.0)            P               Q                  
n   0.33162041     Peri.   89.46784     -0.88005490     -0.47087464             
a   2.0671653      Node    62.43979     +0.40342829     -0.80965881             
e   0.7573245      Incl.    3.97696     +0.25049747     -0.35032796             
P   2.97           H   25.83          G   0.15           U   9                  
Residuals in seconds of arc
231108 F51  0.1-  0.1-    231108 F52  0.1+  0.1+    231110 I52  0.3+  0.2+
231108 F51  0.3-  0.1+    231109 I52  0.0   0.2+    231110 I52  0.5-  0.2+
231108 F51  0.0   0.1+    231109 I52  0.0   0.4-    231110 I52  0.0   0.3-
231108 F52  0.1+  0.1-    231109 I52  0.3+  0.0
Ephemeris:
2023 VG5                 a,e,i = 2.07, 0.76, 4                   q = 0.5017
Date    TT    R. A. (2000) Decl.     Delta      r    Elong.  Phase     V
2023 10 11    03 35 43.7 +13 25 38   0.5450  1.4664   141.9    24.9    26.5
...
2023 10 26    03 40 29.5 +12 27 41   0.3107  1.2832   155.3    18.9    24.8
...
2023 11 03    03 39 12.3 +11 02 05   0.1954  1.1803   162.8    14.4    23.5
...
2023 11 09    03 33 15.2 +08 15 05   0.1126  1.1009   167.3    11.4    22.0
2023 11 10    03 31 09.3 +07 21 36   0.09909 1.0875   167.5    11.4    21.7
2023 11 11    03 28 22.9 +06 11 45   0.08567 1.0740   167.3    11.7    21.4
...
2023 11 17    00 28 37.1 -47 26 13   0.01512 0.9923   102.7    76.5    19.4
...
2023 11 25    16 07 34.3 -21 11 42   0.1055  0.8818     1.8   177.9
...
2023 12 10    15 57 45.9 -17 10 42   0.3266  0.6787    16.7   155.3    32.1
A. U. Tomatic                (C) Copyright 2023 MPC           M.P.E.C. 2023-V163
    
    
More information about the Iaude
mailing list